TimeMST,TemperatureF,Dew PointF,Humidity,Sea Level PressureIn,VisibilityMPH,Wind Direction,Wind SpeedMPH,Gust SpeedMPH,PrecipitationIn,Events,Conditions,WindDirDegrees,DateUTC
12:53 AM,7.0,3.9,87,30.12,10.0,South,4.6,-,N/A,,Clear,180,2013-12-24 07:53:00
1:53 AM,8.1,5.0,87,30.08,10.0,South,8.1,-,N/A,,Clear,190,2013-12-24 08:53:00
2:53 AM,10.9,8.1,88,30.12,10.0,North,6.9,-,N/A,,Overcast,350,2013-12-24 09:53:00
3:53 AM,16.0,12.9,88,30.17,10.0,Calm,Calm,-,N/A,,Overcast,0,2013-12-24 10:53:00
4:16 AM,17.1,14.0,88,29.99,1.8,ESE,4.6,-,0.00,Snow,Light Snow,120,2013-12-24 11:16:00
4:22 AM,18.0,15.1,88,29.99,0.8,South,3.5,-,0.02,Snow,Light Snow,170,2013-12-24 11:22:00
4:31 AM,19.9,17.1,89,29.99,1.0,Variable,5.8,-,0.02,Snow,Light Snow,0,2013-12-24 11:31:00
4:40 AM,23.0,21.0,92,29.99,1.8,NNE,3.5,-,0.02,Snow,Light Snow,20,2013-12-24 11:40:00
4:45 AM,24.1,21.9,91,29.99,3.0,Variable,3.5,-,0.02,Snow,Light Snow,0,2013-12-24 11:45:00
4:53 AM,25.0,23.0,92,30.15,6.0,Calm,Calm,-,0.02,Snow,Light Snow,0,2013-12-24 11:53:00
5:01 AM,25.0,23.0,92,30.01,5.0,Calm,Calm,-,0.00,Snow,Light Snow,0,2013-12-24 12:01:00
5:25 AM,26.1,25.0,96,30.00,10.0,Calm,Calm,-,0.00,,Overcast,0,2013-12-24 12:25:00
5:53 AM,28.9,26.1,89,30.17,10.0,Calm,Calm,-,0.00,,Overcast,0,2013-12-24 12:53:00
6:53 AM,28.0,24.1,85,30.22,10.0,SSW,8.1,-,N/A,,Mostly Cloudy,210,2013-12-24 13:53:00
7:53 AM,27.0,23.0,85,30.26,10.0,West,5.8,-,N/A,,Mostly Cloudy,280,2013-12-24 14:53:00
8:53 AM,32.0,24.1,73,30.30,6.0,North,16.1,24.2,0.00,Snow,Light Snow,10,2013-12-24 15:53:00
9:08 AM,32.0,25.0,75,30.17,2.5,NW,17.3,29.9,0.00,Snow,Light Snow,320,2013-12-24 16:08:00
9:16 AM,32.0,25.0,75,30.17,8.0,NW,15.0,-,0.00,Snow,Light Snow,320,2013-12-24 16:16:00
9:53 AM,34.0,25.0,70,30.33,10.0,NNW,9.2,24.2,0.00,,Overcast,330,2013-12-24 16:53:00
10:53 AM,32.0,23.0,69,30.36,10.0,West,8.1,-,N/A,,Overcast,270,2013-12-24 17:53:00
11:53 AM,32.0,26.1,79,30.38,10.0,SW,5.8,-,N/A,,Mostly Cloudy,230,2013-12-24 18:53:00
12:53 PM,34.0,25.0,70,30.38,10.0,SSW,9.2,-,N/A,,Partly Cloudy,210,2013-12-24 19:53:00
1:53 PM,34.0,24.1,67,30.37,10.0,SW,6.9,-,N/A,,Clear,220,2013-12-24 20:53:00
2:53 PM,33.1,23.0,66,30.35,10.0,South,6.9,-,N/A,,Clear,170,2013-12-24 21:53:00
3:53 PM,30.0,19.9,66,30.35,10.0,SSE,10.4,-,N/A,,Clear,160,2013-12-24 22:53:00
4:53 PM,25.0,17.1,72,30.33,10.0,ESE,15.0,-,N/A,,Clear,110,2013-12-24 23:53:00
5:53 PM,23.0,15.1,72,30.33,10.0,Variable,4.6,-,N/A,,Clear,0,2013-12-25 00:53:00
6:53 PM,16.0,12.9,88,30.38,10.0,Calm,Calm,-,N/A,,Clear,0,2013-12-25 01:53:00
7:53 PM,14.0,12.0,92,30.41,10.0,East,3.5,-,N/A,,Clear,80,2013-12-25 02:53:00
8:53 PM,10.9,8.1,88,30.41,10.0,South,6.9,-,N/A,,Clear,190,2013-12-25 03:53:00
9:53 PM,12.0,8.1,84,30.42,10.0,South,9.2,-,N/A,,Clear,190,2013-12-25 04:53:00
10:53 PM,10.9,8.1,88,30.45,10.0,SSW,9.2,-,N/A,,Clear,200,2013-12-25 05:53:00
11:53 PM,10.9,7.0,84,30.47,10.0,South,11.5,-,N/A,,Clear,190,2013-12-25 06:53:00